Погода в Малакале

Судан     9°40′27″N   31°45′25″E
темп.,
°C
ветер,
м/с
пор.,
м/с
влажн.,
%
обл.,
%
осадки,
мм/ч
давл.,
гПа
погр.,
м
14 апреля, ср
ср1423:00+30с29125 0.0 1009212
02:00+28с2101595 0.0 1008269
05:00+27ссв3111397 0.0 1010311
08:00+31всв36825 0.0 1012658
11:00+37св345100 0.0 10101879
14:00+39ссв23583 0.0 10052807
17:00+38с22516 0.0 10042882
20:00+33сз2285 0.0 100621
15 апреля, чт
чт1523:00+31ссз1193 0.0 100711
02:00+28с24125 0.0 100663
05:00+26с22130 0.0 100832
08:00+32всв49952 0.0 1010580
11:00+38св4562 0.0 10092025
14:00+41ссв2255 0.0 10053325
17:00+39с22654 0.0 10033120
20:00+34ссз22910 0.0 100512
16 апреля, пт
пт1623:00+32с221017 0.0 100520
02:00+29с25123 0.0 100495
05:00+27юв35145 0.0 100792
08:00+32ссв2610100 0.0 1009543
11:00+39св34640 0.0 10072223
14:00+42св2255 0.0 10033275
17:00+40ссв1264 0.0 10033519
20:00+34с2290 0.0 100417
17 апреля, сб
сб1723:00+32ссз22100 0.0 100512
02:00+30с22110 0.0 100426
05:00+28ссв29123 0.0 1006178
08:00+32всв39835 0.0 1009591
11:00+39всв4545 0.0 10072040
14:00+42в21560 0.0 10033758
17:00+40ссв1165 0.0 10033593
20:00+34сз11818 0.0 100511
18 апреля, вс
вс1823:00+31ю28325 0.0 1006196
02:00+29ююз244462 0.0 100593
05:00+28в11515 0.0 100811
08:00+33ююв243755 0.0 1010664
11:00+38ю322555 0.0 10083100
14:00+40зюз111799 0.0 10043641
17:00+38юз5521100 0.0 10041151
20:00+34ююз382856 0.1 1005258